Location: Kamieniec
(53.3100°N, 14.4381°E)
Time: 13:40:03
(UTC+00:00)

Daily predictions for brighter satellites

Satellite Brightness Start Highest point End
(mag) Time Altitude Azimuth Time Altitude Azimuth Time Altitude Azimuth
Cosmos 1703 3.3 20:18:30 10° S 20:22:23 89° ENE 20:26:18 10° NNE
Cosmos 1844 4.2 20:17:16 10° NW 20:22:57 59° WSW 20:28:34 10° SSE
NOSS 3-4 (A) 4.2 20:16:26 10° NW 20:23:03 60° NNE 20:30:24 10° ESE
NOSS 3-4 (C) 4.2 20:16:32 10° NW 20:23:10 60° NNE 20:30:31 10° ESE
COSMOS 2428 3.5 20:18:36 10° S 20:23:36 33° ESE 20:28:37 10° NE
Cosmos 2322 3.9 20:21:49 10° S 20:27:23 54° ESE 20:32:57 10° NE
Meteor 1-27 4.4 20:23:43 10° N 20:29:27 73° ENE 20:35:14 10° SSE
Cosmos 1869 4.2 20:26:12 10° N 20:29:54 37° ENE 20:33:39 10° SE
Cosmos 1709 Rocket 4.1 20:27:45 10° S 20:34:04 84° E 20:40:29 10° NNE
NOSS 3-3 (A) 4.5 20:30:31 10° S 20:35:55 38° ESE 20:41:57 10° NE
NOSS 3-3 (C) 4.5 20:30:38 10° S 20:36:01 38° ESE 20:42:04 10° NE
Terra 1.9 20:32:04 10° SSE 20:36:49 74° ENE 20:41:36 10° NNW
Cosmos 2237 Rocket 3.7 20:33:39 10° SE 20:37:32 19° E 20:41:25 10° ENE
CARTOSAT-1 3.7 20:33:42 10° S 20:38:00 74° WSW 20:42:21 10° NNW
Cosmos 2333 4.3 20:33:35 10° SSW 20:39:09 62° ESE 20:44:48 10° NE
Cosmos 2219 Rocket 2.5 20:34:16 10° S 20:39:34 46° ESE 20:44:55 10° NE
Cosmos 2360 Rocket 2.4 20:35:48 10° SW 20:41:28 78° WNW 20:47:11 10° NNE
Cosmos 1538 Rocket 4.4 20:37:16 10° S 20:42:24 48° ESE 20:47:31 10° NE
Cosmos 2184 Rocket 4.4 20:42:52 10° SSE 20:48:46 47° E 20:54:46 10° NNE
Cosmos 2333 Rocket 2.3 20:43:46 10° SSW 20:49:20 57° ESE 20:54:57 10° NE
Cosmos 1315 Rocket 2.9 20:45:55 10° NNW 20:50:02 81° WSW 20:54:09 10° S
ATLAS 2AS CENTAUR R/B 3.2 20:43:19 10° NW 20:51:07 71° NE 20:58:15 10° ESE
Cosmos-2242 4.5 20:49:22 10° NNW 20:53:19 34° W 20:57:15 10° SSW
Resurs 01 Rocket 4.2 20:50:52 10° SW 20:53:34 16° W 20:56:18 10° NW
Cosmos 1818 3.8 20:51:21 10° SW 20:56:48 80° NW 21:02:18 10° NE
Cosmos 2221 2.6 20:54:04 10° N 20:58:29 72° ENE 21:02:29 12° SSE
Cosmos 773 Rocket 4.1 20:54:02 10° SSW 20:59:21 88° ESE 21:04:41 10° NNE
SL-16 R/B 4.0 20:55:34 10° WSW 21:00:46 36° NW 21:06:01 10° NNE
GEOS 3 Rocket 3.7 20:56:10 10° NE 21:01:36 85° SE 21:07:01 10° SW
ERS-1 Rocket 3.7 20:57:42 10° S 21:02:35 48° W 21:07:29 10° NNW
USA 215 3.4 20:58:30 10° ENE 21:04:55 52° SE 21:11:16 10° SW
Cosmos 2278 Rocket 2.2 21:02:19 10° NNW 21:08:03 87° WSW 21:13:09 13° SSE
Cosmos 1892 3.4 21:07:02 14° SSE 21:09:55 37° E 21:13:27 10° NNE
Cosmos 1844 Rocket 4.5 21:07:58 10° NW 21:12:14 23° WSW 21:16:29 10° SSW
ATLAS 5 CENTAUR R/B 1.9 21:09:07 10° SW 21:13:24 73° NW 21:18:21 10° NE
Aureole 2 Rocket 4.0 21:12:21 10° N 21:14:32 20° NE 21:16:45 10° ESE
Cosmos 1943 Rocket 3.8 21:10:58 10° NNW 21:15:53 29° NE 21:20:45 10° E
SPOT 5 3.9 21:14:38 10° SSW 21:19:20 40° W 21:23:52 10° NNW
Lacrosse 5 rocket 2.3 21:17:31 10° WNW 21:21:36 49° N 21:25:27 10° E
SL-16 R/B 3.9 21:18:56 11° SE 21:21:56 16° E 21:25:18 10° ENE
Cosmos 2056 Rocket 4.0 21:17:28 10° NNW 21:22:50 58° ENE 21:27:39 13° SE
Nadezhda 3 Rocket 4.1 21:17:15 10° N 21:23:40 73° ENE 21:29:11 14° SSE
Spot 4 4.2 21:20:00 14° SE 21:24:02 57° ENE 21:28:43 10° N
Cosmos 2058 3.1 21:25:00 14° S 21:28:23 59° E 21:32:28 10° NNE
Cosmos 2154 Rocket 4.2 21:23:04 13° S 21:28:33 59° E 21:34:39 10° NNE
Cosmos 1408 3.3 21:29:06 17° SSE 21:31:23 38° E 21:34:44 10° NNE
Meteor 2-17 Rocket 4.4 21:27:25 11° S 21:33:18 77° E 21:39:23 10° NNE
TSX-5 4.2 21:31:30 10° NW 21:34:48 47° WSW 21:37:36 17° S
In-Cosmos 22 Rocket 4.1 21:29:55 12° S 21:34:51 73° E 21:40:11 10° NNE
Cosmos 2074 Rocket 4.0 21:29:38 10° S 21:35:52 86° W 21:42:08 10° N
Cosmos 1076 Rocket 3.5 21:36:08 15° S 21:39:36 68° E 21:43:52 10° NNE
USA 267 3.5 21:34:04 13° SE 21:39:48 53° SW 21:46:13 10° WNW
Cosmos 1680 Rocket 3.8 21:35:42 13° S 21:40:10 51° ESE 21:45:20 10° NNE
CZ-4C R/B 3.8 21:38:16 10° NW 21:44:32 46° NNE 21:51:56 10° E
EO 1 Delta rocket 4.4 21:43:13 10° NNE 21:48:07 59° E 21:52:50 16° S
COSMOS 2455 3.6 21:42:22 10° NW 21:48:15 50° NE 21:54:07 10° ESE
Cosmos 2151 3.7 21:47:18 18° SSE 21:50:05 41° E 21:54:07 10° NNE
Helios 1A 4.5 21:48:16 11° ESE 21:51:44 28° ENE 21:55:19 10° N
ATLAS CENTAUR R/B 3.3 21:54:31 10° W 21:56:30 14° WSW 21:58:26 10° SSW
Cosmos 923 Rocket 4.0 21:52:24 10° SSW 21:57:40 84° ESE 22:03:00 10° NNE
Cosmos 1933 4.2 21:55:50 10° N 21:59:39 40° ENE 22:02:24 17° SE
Cosmos 1151 Rocket 3.7 21:55:59 10° N 22:00:11 46° ENE 22:03:13 17° SE
Cosmos 2369 Rocket 3.5 21:55:14 10° NNW 22:00:25 36° NE 22:05:35 10° ESE
Cosmos 1825 2.4 21:58:08 21° SSE 22:00:29 56° E 22:04:14 10° NNE
ALOS 2 2.8 21:58:03 18° SSE 22:01:13 64° ENE 22:05:35 10° N
Cosmos 1340 4.4 21:59:38 15° SE 22:01:29 20° E 22:04:19 10° NE
Cosmos 1980 3.7 21:56:56 10° SSW 22:02:33 73° ESE 22:08:12 10° NE
APEX 3.8 22:00:33 10° NNW 22:03:07 32° NE 22:05:07 14° ESE
Cosmos 44 4.2 22:05:15 19° SSE 22:06:58 25° ESE 22:10:34 10° ENE
COSMOS 2428 3.4 22:02:03 10° SW 22:07:38 57° NW 22:13:16 10° NNE
Cosmos 371 Rocket 3.6 22:03:05 10° NNW 22:07:57 62° ENE 22:11:47 16° SE
GP-B 3.6 22:04:09 10° N 22:08:30 50° E 22:11:24 20° SSE
Cosmos 1295 Rocket 4.5 22:06:31 15° S 22:11:46 89° E 22:17:54 10° N
Cosmos 1624 Rocket 4.2 22:08:06 10° NNW 22:13:18 65° WSW 22:16:57 19° S
NOSS 3-4 (A) 4.1 22:07:25 10° NW 22:14:05 53° SW 22:19:46 17° SSE
NOSS 3-4 (C) 4.1 22:07:31 10° NW 22:14:12 54° SW 22:19:55 17° SSE
NOSS 0 Rocket 4.0 22:08:50 10° SSW 22:15:00 87° WNW 22:21:14 10° NNE
Terra 3.9 22:11:48 10° SW 22:15:07 19° W 22:18:26 10° NW
SL-4 R/B 1.5 22:19:54 29° ESE 22:20:25 34° ENE 22:22:22 10° N
Cosmos 1782 4.1 22:17:12 10° N 22:20:46 31° ENE 22:23:34 14° SE
Cosmos 2237 Rocket 2.2 22:15:07 10° SSW 22:20:50 89° ESE 22:26:36 10° NNE
Genesis I 3.3 22:18:36 17° SSW 22:21:24 56° SE 22:25:14 10° NE
CREW DRAGON DEMO-1 DEB 4.1 22:22:53 23° SE 22:22:53 23° SE 22:24:55 10° E
Cosmos 2344 3.7 22:16:19 10° SSW 22:23:35 60° SE 22:31:40 10° NE
Cosmos 2219 Rocket 3.4 22:18:17 10° WSW 22:23:36 43° NW 22:28:58 10° NNE
NOSS 3-3 (A) 4.4 22:20:24 10° WSW 22:26:28 67° NW 22:33:28 10° NE
NOSS 3-3 (C) 4.4 22:20:30 10° WSW 22:26:35 68° NW 22:33:35 10° NE
Thor Agena Rocket 3.7 22:23:45 10° NNE 22:28:53 71° WNW 22:33:18 14° SSW
Cosmos 1346 Rocket 4.2 22:28:04 17° SE 22:30:04 26° E 22:33:23 10° NE
Cosmos 2333 Rocket 3.7 22:28:36 10° WSW 22:33:53 37° NW 22:39:14 10° NNE
RESURS DK-1 3.7 22:34:58 10° NNW 22:38:49 36° NE 22:42:40 10° ESE
Cosmos 1515 Rocket 3.7 22:36:04 10° N 22:40:25 66° ENE 22:43:15 21° SSE
BREEZE-M DEB (TANK) 2.8 22:38:56 10° W 22:41:22 21° SW 22:41:22 21° SW
ATLAS 2AS CENTAUR R/B 3.4 22:34:47 10° NW 22:41:47 41° WSW 22:46:25 19° S
EO 1 Del DPAF 4.0 22:38:24 10° N 22:42:03 47° WNW 22:44:59 15° SW
EP 3 4.4 22:42:47 35° E 22:42:47 35° E 22:44:19 10° ENE
Cosmos 1766 Rocket 3.5 22:44:24 21° SSW 22:47:17 85° W 22:51:44 10° N
Cosmos 1328 Rocket 3.6 22:43:30 10° NNW 22:47:48 69° W 22:50:25 23° S
Aureole 2 Rocket 3.2 22:45:40 10° NW 22:48:09 28° WSW 22:48:59 24° SW
USA 215 3.4 22:41:38 10° ENE 22:48:13 81° NNW 22:54:47 10° WSW
Gbstr 26 Del rocket 4.1 22:49:28 20° SE 22:49:40 20° SE 22:52:47 10° E
Okean 3 Rocket 3.7 22:47:02 20° SSW 22:50:08 72° WNW 22:54:35 10° N
Cosmos 1606 3.3 22:46:22 10° NNW 22:50:08 48° W 22:52:19 22° SSW
Cosmos 2278 Rocket 4.0 22:47:34 10° WNW 22:51:20 18° W 22:54:59 10° SW
Cosmos 2297 4.1 22:47:55 10° NW 22:53:29 51° WSW 22:57:11 20° S
Cosmos 304 Rocket 3.9 22:49:33 10° NNW 22:54:25 77° ENE 22:58:04 18° SSE
Cosmos 2218 Rocket 4.0 22:50:54 19° S 22:55:41 87° E 23:02:02 10° NNE
Cosmos 2228 Rocket 3.6 22:51:32 10° N 22:56:05 55° ENE 22:59:19 18° SSE
Cosmos 1420 Rocket 4.4 22:52:06 10° NNW 22:57:14 53° WSW 23:00:36 21° S
ATLAS 5 CENTAUR R/B 3.9 22:54:45 10° WNW 22:58:49 30° NNW 23:03:27 10° NE
Cosmos 1943 Rocket 2.2 22:54:34 10° NNW 23:00:17 82° WSW 23:04:40 17° SSE
Lacrosse 5 rocket 1.2 22:56:59 10° WNW 23:01:04 87° NNE 23:04:53 10° ESE
Cosmos 2366 rocket 4.1 22:56:35 19° S 23:01:22 90° SSE 23:07:46 10° N
Landsat 4 4.2 22:58:21 10° NNE 23:02:01 46° E 23:03:59 24° SSE
Cosmos 1633 3.0 23:01:11 25° SSE 23:03:00 51° E 23:06:32 10° NNE
SL-16 R/B 2.2 23:00:46 17° SSW 23:05:09 78° ESE 23:10:53 10° NNE
Cosmos 1821 Rocket 4.5 23:05:52 18° SSE 23:10:18 50° E 23:16:09 10° NNE
YAOGAN 11 4.2 23:09:09 23° S 23:11:50 70° WSW 23:16:17 10° NNW
Cosmos 1743 Rocket 3.7 23:12:36 23° S 23:15:11 62° E 23:19:30 10° NNE
Cosmos 332 Rocket 4.1 23:13:58 10° NW 23:18:37 50° WSW 23:21:28 22° S
Cosmos 1331 Rocket 4.2 23:13:35 10° NNW 23:18:55 72° ENE 23:23:39 13° SE
Cosmos 1048 Rocket 4.3 23:19:32 21° S 23:22:57 54° ESE 23:28:05 10° NNE
Meteor 2-3 Rocket 3.8 23:21:02 19° SSW 23:25:12 76° WNW 23:30:58 10° NNE
Helios 1A 3.7 23:24:53 22° SSW 23:27:10 40° W 23:31:08 10° NNW
Cosmos 405 3.2 23:23:55 10° NNW 23:27:24 55° W 23:29:08 26° SSW
Meteor 1-29 4.3 23:24:29 10° NE 23:27:27 28° E 23:29:10 18° SE
Meteor 1-10 Rocket 4.3 23:25:47 10° NNW 23:31:25 77° ENE 23:35:50 17° SSE
Cosmos 1452 Rocket 4.1 23:27:00 10° NW 23:31:57 42° WSW 23:35:06 20° SSW
CZ-4C R/B 2.9 23:26:47 10° NW 23:33:44 82° SW 23:41:53 10° SE
Meteor 2-6 Rocket 4.1 23:28:19 10° NNW 23:33:52 88° WSW 23:37:54 19° S
PSLV R/B 3.6 23:29:43 10° NNE 23:33:56 67° ESE 23:36:34 22° S
Cosmos 389 Rocket 3.9 23:30:55 10° N 23:34:09 33° ENE 23:37:05 12° SE
COSMOS 2455 3.2 23:28:29 10° NW 23:34:16 48° WSW 23:38:24 19° S
Cosmos 1110 Rocket 4.0 23:30:46 10° NNW 23:36:04 81° WSW 23:40:16 17° SSE
Cosmos 1340 3.5 23:34:23 18° SW 23:36:51 41° WNW 23:40:27 10° N
ALOS 2 4.5 23:35:27 12° SW 23:37:58 19° W 23:41:08 10° NW
Cosmos 1408 Rocket 4.3 23:35:56 17° SW 23:39:00 46° WNW 23:43:17 10° N
SL-16 R/B 3.5 23:33:12 10° SE 23:39:05 46° ENE 23:45:03 10° N
Cosmos 1603 4.2 23:36:25 19° S 23:40:10 47° ESE 23:45:39 10° NE
Resurs 1-4 Rocket 3.8 23:39:55 10° NE 23:44:12 24° E 23:48:26 10° SE
APEX 4.4 23:42:34 10° WNW 23:44:18 15° WSW 23:44:22 15° WSW
Cosmos 2369 Rocket 2.3 23:39:15 10° NW 23:44:44 57° WSW 23:48:49 18° S
Cosmos 1500 Rocket 3.7 23:44:49 21° SSW 23:47:43 70° WNW 23:52:07 10° N
Cosmos 44 3.4 23:43:37 11° WSW 23:47:48 63° NW 23:52:18 10° NE
SeaSat 1 3.9 23:44:03 10° NE 23:48:09 25° ESE 23:51:20 14° SSE
ISS -1.6 23:51:01 13° SE 23:51:01 13° SE 23:52:34 10° ESE
Helios 1B rocket 2.4 23:48:35 10° NNE 23:52:45 85° ESE 23:55:23 22° SSW
ADEOS II 4.5 23:52:50 10° ENE 23:55:11 13° E 23:57:33 10° ESE
